Wind_Speed
36 36 36 36 36 37 39 41 42 43 43 43 43 43 43 41 40 40 41 42 43 43 43 43 44 45 45 45 45 45 45 47 49 50 50 51 49 48 48 48 47 47 47 48 49 49 47 44 43 42 42 44 45 44 44 45 44 40 36 34 33 33 34 36 36 35 35 35 34 33 33 34 34 33 34 36 37 37 37 38 38 37 36 35 34 32 31
36 36 36 36 37 39 40 41 42 43 43 42 42 41 40 39 38 39 41 42 43 44 44 44 45 45 45 45 45 45 46 47 49 50 50 50 50 50 48 47 47 46 48 51 52 51 48 45 43 43 44 45 45 45 44 45 44 40 38 35 34 34 36 37 38 36 35 36 34 33 34 34 32 32 33 35 35 35 35 37 37 37 36 36 35 34 34
36 36 37 38 39 40 41 41 42 42 42 41 39 38 38 38 38 39 40 42 43 44 45 45 44 44 44 45 45 45 45 45 48 51 51 50 50 50 48 47 47 47 48 53 55 54 50 47 45 46 47 47 46 45 45 45 43 41 40 37 35 36 37 38 39 38 36 36 35 34 36 34 32 32 32 33 34 35 35 36 36 36 37 36 35 35 36
38 38 38 39 40 40 41 41 41 41 40 38 36 35 36 37 39 40 40 42 43 44 45 45 44 43 42 43 42 42 42 42 44 48 49 48 48 49 49 49 49 48 50 54 57 56 51 48 48 48 49 48 47 46 45 45 44 43 42 39 37 38 38 39 40 39 38 37 36 36 36 34 32 32 32 32 34 35 35 36 36 36 35 35 36 36 37
40 40 40 40 41 41 41 41 40 39 37 35 33 34 35 37 38 40 41 42 43 44 44 43 43 40 38 38 38 39 39 39 40 43 44 44 44 45 47 49 51 51 51 55 58 57 52 50 49 49 48 49 48 46 45 45 45 45 44 42 40 39 39 40 41 40 39 39 38 37 36 35 33 32 32 32 33 34 34 34 35 36 35 35 35 36 36
42 42 41 41 41 41 40 39 38 36 33 31 32 33 35 36 38 39 41 42 43 43 42 40 38 36 35 34 35 35 36 36 37 39 39 40 42 42 44 47 49 50 52 55 59 58 54 51 50 49 49 50 49 48 47 47 46 45 45 44 43 42 41 41 42 43 42 41 39 38 38 36 35 34 34 34 34 35 35 34 34 35 36 37 37 37 36
44 43 42 41 40 39 38 36 33 31 30 30 31 33 34 36 37 39 40 41 41 39 37 36 34 33 32 31 31 31 31 32 34 35 36 38 39 41 42 44 45 46 48 53 58 60 57 53 51 49 50 51 51 49 50 49 46 46 46 46 45 44 43 43 44 44 44 42 41 40 40 38 36 36 36 35 35 36 36 35 34 34 37 39 40 40 39
43 42 41 39 38 36 34 31 29 28 29 29 30 32 34 36 37 37 38 38 37 35 33 32 31 30 29 28 27 27 27 28 30 31 33 35 36 39 40 41 41 42 45 50 55 59 57 54 52 51 51 52 51 50 51 51 48 47 47 47 47 46 45 45 44 44 43 43 43 42 41 40 39 38 38 37 37 37 37 37 36 35 36 38 39 40 41
41 39 37 35 33 30 28 27 27 27 28 28 30 32 33 34 35 34 34 34 33 32 31 31 30 28 27 26 25 24 23 25 26 27 29 31 33 35 37 38 39 40 42 46 50 54 54 53 53 53 53 54 52 51 52 53 53 51 49 48 48 48 48 46 45 46 45 44 45 45 43 43 43 42 42 42 41 41 40 39 37 36 36 37 39 41 42
36 34 31 28 26 25 25 25 26 26 26 27 29 31 31 31 31 30 30 30 31 31 31 30 29 27 26 24 23 22 20 21 22 24 25 27 30 32 34 35 37 39 40 43 46 48 50 50 51 53 55 55 54 54 55 56 55 54 51 49 50 51 50 48 47 48 48 47 47 46 45 46 48 47 47 46 45 44 42 40 39 38 38 38 39 41 43
28 26 24 23 22 23 24 24 24 24 25 27 28 29 28 27 27 28 28 28 28 29 28 27 27 26 24 21 20 19 19 18 19 20 22 24 26 28 30 32 34 36 38 39 42 44 45 46 48 50 53 56 57 57 57 56 55 55 54 52 52 53 53 51 49 49 49 49 49 47 45 47 50 51 52 51 49 47 45 44 41 40 38 38 39 41 42
22 21 20 21 21 22 22 22 22 23 24 25 26 25 24 24 25 26 27 26 26 26 25 24 23 22 21 19 18 17 17 16 16 17 18 20 22 24 27 28 30 32 34 36 38 40 41 42 44 47 51 56 59 59 59 57 56 57 57 56 56 56 55 54 53 52 51 52 52 52 50 49 50 53 55 55 54 51 49 47 46 43 39 37 39 40 40
20 19 20 20 20 20 20 20 21 22 23 22 22 21 22 23 24 25 24 24 23 22 22 21 20 18 18 18 17 15 15 15 14 14 15 16 18 21 23 25 26 29 32 34 36 38 39 41 43 46 50 54 58 61 60 59 58 59 59 59 60 59 57 57 57 56 56 56 56 57 57 54 53 55 56 57 57 55 52 50 49 47 44 43 43 43 42
19 19 19 19 18 18 19 19 20 20 19 18 18 19 21 22 22 22 22 21 20 19 18 18 17 16 16 16 15 14 13 13 12 11 12 13 14 17 19 21 23 26 29 32 35 37 38 40 43 46 49 53 57 60 61 60 60 60 60 61 62 61 60 60 60 60 60 60 60 60 59 57 56 55 55 55 56 56 55 54 52 51 50 49 49 47 46
18 18 17 17 17 17 18 18 18 17 16 16 17 18 20 20 20 19 18 18 17 16 16 16 16 16 15 15 14 13 12 12 11 10 10 10 11 13 16 18 20 22 25 29 32 35 37 39 42 45 48 52 54 57 59 60 62 62 62 63 64 63 61 61 63 63 62 63 63 62 60 60 57 55 54 54 54 55 55 55 55 55 54 54 53 52 49
17 17 16 16 16 16 16 16 15 14 14 15 16 17 18 18 17 16 15 14 14 14 14 15 15 15 15 15 14 13 12 11 10 9 8 8 9 10 12 14 16 18 22 25 28 32 35 38 41 44 47 50 51 54 57 60 63 65 64 65 66 66 64 62 62 64 64 64 65 64 63 62 60 56 55 55 54 54 54 56 57 58 59 58 58 57 55
16 16 15 15 15 15 14 13 13 12 13 14 15 15 15 15 14 13 11 11 11 12 12 13 14 15 16 16 16 15 14 13 11 10 8 7 7 7 8 10 13 15 18 22 25 28 32 35 39 43 46 48 49 51 54 58 62 66 67 67 68 68 66 63 62 64 65 66 66 66 65 65 63 60 58 57 57 57 56 57 58 59 62 63 62 62 62
15 15 15 14 14 14 13 12 11 11 11 13 13 13 12 12 10 9 8 8 9 10 11 12 13 15 15 16 16 16 16 15 14 12 10 8 6 6 6 7 9 12 15 19 22 26 30 34 37 41 44 46 47 49 51 54 59 65 68 68 69 69 68 65 63 64 66 67 68 68 67 67 66 64 62 60 60 60 59 59 59 59 61 63 64 65 66
15 14 14 14 13 13 12 11 10 10 10 11 10 10 9 8 6 5 6 7 8 9 11 12 14 15 15 16 16 17 17 17 16 15 13 11 9 6 5 4 6 9 12 15 19 23 27 31 35 39 42 44 46 48 50 52 56 61 66 69 69 69 68 67 65 65 67 68 69 69 69 69 68 67 66 64 62 62 62 62 62 61 61 63 63 64 65
14 14 14 14 14 13 11 10 9 9 9 8 8 7 6 4 3 4 6 7 9 10 11 13 14 15 16 17 17 18 18 18 17 16 15 13 11 9 7 5 4 6 8 12 15 20 24 28 31 34 37 40 43 46 49 51 53 57 63 68 70 70 69 68 68 68 69 69 70 70 71 70 70 69 69 67 66 65 65 65 65 65 65 65 65 65 66
14 14 15 15 15 13 11 9 8 8 7 6 6 5 2 1 4 6 8 9 10 12 13 14 15 16 17 18 18 19 19 19 18 17 16 15 13 12 9 8 6 5 6 8 12 16 20 24 28 31 34 37 40 44 47 50 52 55 60 65 70 72 71 71 70 71 71 71 71 72 72 72 72 71 70 70 69 68 67 67 67 67 68 68 69 70 70
15 15 16 16 15 12 10 9 7 6 5 5 3 1 2 5 7 8 9 10 12 13 14 15 16 17 18 19 19 20 20 20 19 18 17 17 15 14 12 10 8 6 5 6 8 12 16 20 24 28 31 34 38 41 44 48 50 53 56 61 67 71 73 74 74 74 74 74 74 74 74 74 73 73 73 72 72 71 70 70 70 70 70 71 71 72 73
16 17 18 17 15 12 10 8 6 5 4 3 2 3 6 7 8 9 10 11 12 13 14 15 16 18 19 20 20 20 20 20 20 20 19 18 17 15 14 12 10 8 6 6 6 8 11 15 19 23 27 30 34 38 41 45 47 50 53 57 62 68 72 75 76 76 77 77 76 76 76 76 76 76 76 75 75 74 74 73 73 73 73 74 74 75 76
18 19 19 17 15 12 10 7 5 4 3 2 4 6 8 9 9 10 10 10 11 12 13 14 16 17 18 19 20 21 21 21 21 21 20 19 18 16 15 14 12 11 9 7 6 7 8 11 15 18 22 26 30 34 38 41 44 48 51 55 59 63 68 72 75 77 78 78 78 78 78 78 78 78 79 78 78 77 77 76 76 76 77 77 78 78 78
20 20 19 17 15 12 9 7 5 4 4 4 6 8 9 8 9 9 9 9 9 10 11 12 14 15 16 18 19 20 21 22 22 22 22 21 20 18 16 14 13 12 11 10 9 8 7 9 12 14 17 21 25 30 34 38 43 46 50 54 58 61 64 68 73 77 79 80 81 81 80 80 80 80 81 81 81 80 80 79 79 79 80 80 81 81 81
22 21 20 17 15 12 9 7 5 5 5 6 8 9 8 7 7 7 7 7 8 9 10 11 12 14 15 16 18 20 21 22 23 23 23 22 21 20 18 15 13 12 11 11 11 11 10 10 10 12 14 17 21 26 30 35 40 44 48 52 55 58 60 64 68 72 76 80 82 83 84 83 83 83 83 83 83 83 83 82 82 82 83 83 83 83 83
23 22 20 18 15 12 9 7 6 5 6 8 9 9 7 6 6 6 6 6 7 8 10 11 12 13 14 15 17 19 21 22 23 23 23 23 23 22 20 18 16 13 11 10 10 10 12 13 12 12 13 15 19 23 27 31 35 39 43 48 52 55 57 60 63 67 72 76 80 83 85 85 86 85 85 86 86 86 86 86 86 86 86 86 86 86 86
24 23 21 18 16 13 10 8 7 6 7 8 8 8 6 5 5 5 6 7 8 9 10 11 12 13 14 15 17 18 20 21 23 24 24 24 24 23 22 20 18 16 13 12 10 9 10 12 13 14 15 16 18 21 24 27 30 33 37 41 46 51 55 58 61 64 68 71 75 78 81 83 85 86 86 87 88 88 89 89 89 89 89 89 89 89 89
25 23 21 19 16 13 11 9 8 7 7 7 7 6 5 5 5 6 7 8 9 10 10 11 12 14 15 16 17 18 19 21 22 24 24 25 25 24 23 22 20 18 16 14 12 11 11 11 12 13 15 18 20 22 24 25 27 29 32 36 40 45 49 54 57 61 64 67 70 73 76 78 81 83 84 85 87 88 89 90 90 91 91 92 92 92 92
25 24 22 20 17 14 12 10 9 8 7 7 6 6 5 5 5 6 7 8 10 11 11 12 13 14 15 16 17 18 20 21 22 24 25 25 26 25 25 23 21 20 18 16 14 13 13 12 12 12 14 17 20 23 25 26 26 26 28 31 35 38 42 47 51 55 59 63 66 68 70 73 75 78 80 81 82 83 85 87 88 89 90 91 92 93 93
26 24 23 20 18 15 13 11 9 8 7 6 6 5 5 5 4 5 6 8 9 10 12 13 14 16 17 17 18 19 20 21 23 24 25 26 26 26 25 24 23 21 20 19 17 16 15 14 13 13 14 16 19 22 25 27 28 28 28 30 32 34 37 41 45 49 53 57 60 62 65 67 70 73 75 77 79 80 81 81 83 84 86 87 88 88 90
26 25 23 21 19 16 14 12 10 8 7 6 5 5 4 3 3 4 5 6 8 10 11 13 15 16 18 19 19 20 21 23 24 25 26 27 28 28 27 26 24 23 22 21 20 18 17 17 16 15 16 17 19 21 23 25 27 29 30 30 31 32 35 38 41 44 47 50 53 55 58 61 63 66 69 71 74 76 78 79 79 79 80 81 82 82 83
27 26 24 22 20 17 15 13 11 9 7 6 5 4 3 2 1 3 4 6 8 10 11 13 14 16 18 19 20 22 23 24 25 27 28 29 30 30 30 28 27 26 25 24 23 21 20 19 19 18 17 18 19 20 22 24 27 29 30 31 30 31 33 36 39 42 44 46 48 50 52 54 57 59 62 65 67 70 73 75 76 76 75 75 75 76 77
27 26 25 23 20 18 16 15 12 10 8 7 5 4 2 1 1 3 5 7 8 10 12 13 15 17 18 20 21 23 24 25 27 29 30 31 32 32 32 31 30 29 28 27 27 25 23 22 21 20 20 19 19 20 21 24 27 28 29 30 31 31 32 35 37 40 42 44 46 48 49 51 52 54 56 59 62 64 67 69 70 71 71 71 71 71 72
28 26 25 23 21 19 17 16 13 11 9 7 5 4 2 1 3 4 6 8 9 11 12 14 15 17 19 20 22 24 25 26 28 30 32 33 34 35 35 34 33 32 31 31 30 29 28 26 24 23 22 20 20 20 22 24 26 27 28 29 31 31 33 34 36 38 40 42 44 46 47 49 50 52 54 56 58 60 61 62 64 65 66 67 67 68 68
28 27 26 24 22 20 18 16 14 12 10 8 6 5 3 3 4 6 7 9 10 11 13 14 16 17 19 21 22 24 26 27 29 31 33 35 36 36 37 37 36 35 34 34 33 32 32 30 28 26 25 23 21 21 22 23 24 26 27 28 30 31 33 35 36 38 39 41 42 44 45 47 49 51 53 54 55 55 56 58 58 59 60 61 62 63 63
28 26 25 24 22 20 18 16 15 13 11 9 7 6 5 5 6 7 8 9 11 12 13 15 16 18 19 21 23 25 26 28 29 31 33 35 37 38 38 38 38 37 37 36 36 35 35 33 31 29 28 27 25 24 23 23 23 24 26 27 28 30 32 35 37 38 40 41 41 42 43 45 46 48 50 51 51 52 54 55 55 54 54 55 57 57 58
28 26 25 24 23 21 19 17 15 14 12 10 8 8 8 8 9 9 10 11 12 13 14 16 17 18 20 22 23 25 26 28 30 31 33 35 37 38 39 40 40 40 39 39 38 38 36 35 33 32 30 30 28 27 26 25 25 25 25 26 27 29 31 34 36 38 40 42 43 43 42 42 42 43 45 46 47 49 51 52 52 51 51 52 52 53 54
28 27 26 25 24 22 20 18 17 15 13 11 10 10 10 10 11 11 12 12 13 14 16 17 18 19 21 22 24 25 27 28 30 32 34 36 38 39 40 41 41 41 41 41 41 40 39 37 36 34 33 31 30 29 28 28 27 27 27 26 27 28 30 32 34 37 39 42 44 44 43 42 41 41 41 42 42 44 47 48 49 49 49 49 49 49 51
28 27 26 26 25 23 22 20 18 16 15 13 12 12 12 12 13 13 14 14 15 16 17 18 19 20 21 23 25 26 28 29 30 32 34 37 38 39 40 41 42 43 43 43 43 43 42 41 39 37 36 34 33 32 31 30 30 29 28 28 28 28 30 32 34 35 37 39 41 43 43 42 41 40 40 39 39 40 42 44 45 46 47 47 47 47 48
29 28 27 26 25 24 23 21 20 18 17 16 15 14 14 14 15 15 15 16 17 17 18 20 21 22 22 23 25 27 28 30 31 33 35 37 39 40 41 42 43 44 44 45 45 45 44 44 42 40 39 37 36 34 33 33 32 30 29 29 29 29 30 32 34 35 36 37 38 39 40 41 41 40 39 38 37 38 39 40 41 42 43 44 45 45 46
29 28 27 26 25 25 24 23 21 20 19 18 17 17 16 16 17 17 17 17 18 19 20 21 22 23 23 24 25 27 29 30 31 33 35 38 39 40 41 42 44 45 46 47 47 47 46 45 45 43 41 39 38 37 36 36 35 33 31 30 30 29 30 31 33 35 36 36 36 35 36 37 38 38 37 36 35 35 35 37 38 39 40 41 42 43 43
28 28 28 27 26 25 24 24 23 22 21 21 20 19 18 18 19 19 19 19 19 20 21 22 23 24 24 25 26 28 29 30 31 33 35 37 39 41 41 42 44 46 47 48 49 49 48 47 46 45 44 42 40 39 38 37 36 35 33 31 30 30 30 30 32 33 35 36 35 34 33 33 34 34 35 34 33 32 33 34 35 37 37 38 39 40 40
28 28 27 27 26 25 25 24 23 23 22 22 22 21 20 20 20 21 21 21 21 22 23 23 24 25 26 26 27 28 30 31 32 33 35 37 39 40 41 42 44 46 47 49 50 50 50 49 48 47 46 45 44 42 40 38 37 36 34 32 31 30 29 29 30 31 32 34 34 33 31 31 31 31 31 32 31 31 30 31 33 34 35 36 37 37 37
27 26 26 26 26 26 25 25 24 24 24 24 23 22 21 21 21 22 23 22 22 23 24 25 25 26 26 27 27 29 30 31 32 34 36 38 39 40 41 43 44 46 48 49 50 51 51 50 50 49 48 47 46 45 43 41 40 38 36 35 33 32 30 29 29 29 30 31 32 31 30 29 29 29 28 29 29 29 29 29 30 32 33 34 35 34 34
26 26 26 26 26 25 25 25 25 25 25 24 24 23 22 22 22 24 24 24 24 24 25 25 26 26 27 28 28 30 31 32 33 34 36 38 40 40 42 43 45 47 48 50 51 52 52 52 51 51 49 48 46 45 45 43 42 40 38 37 36 35 33 31 30 29 29 29 29 29 28 27 27 27 27 27 27 28 28 28 28 29 30 32 33 33 32
26 26 25 26 25 25 25 25 25 25 25 24 24 24 23 23 23 25 26 25 25 25 25 25 26 27 27 28 29 30 31 32 33 35 37 39 39 40 42 44 46 47 49 50 52 53 54 54 53 52 52 50 48 46 45 44 43 41 38 36 36 36 35 33 31 30 29 29 28 28 27 26 25 25 25 26 26 27 27 27 26 26 28 30 32 32 31
25 25 25 26 26 26 25 25 24 24 24 24 24 25 25 24 24 25 26 26 26 26 26 26 26 27 28 29 30 31 32 32 33 35 38 39 40 40 42 44 46 48 49 51 53 54 55 55 55 54 53 52 50 49 47 46 44 42 39 36 35 35 34 33 31 30 29 29 28 27 26 26 25 24 24 25 25 26 26 26 25 25 26 28 30 30 30
25 25 25 26 26 26 26 25 25 25 25 24 25 26 26 25 25 26 26 27 27 27 26 26 27 27 28 29 31 32 32 32 34 36 38 39 40 41 42 44 46 48 50 51 53 55 56 57 57 56 55 54 52 51 49 47 46 43 40 37 34 34 34 33 31 30 29 28 27 26 25 25 25 25 24 24 25 25 25 25 24 24 25 27 28 29 30
24 25 25 26 26 26 26 26 26 26 25 25 25 26 26 26 26 26 26 26 27 27 27 27 27 28 29 30 31 32 33 33 34 36 38 39 40 42 43 45 47 48 50 52 54 56 57 58 58 58 58 56 55 53 50 49 47 45 42 38 35 34 33 32 31 29 28 27 27 26 25 24 24 25 25 25 24 24 24 23 23 23 24 25 27 28 29
25 25 25 26 26 27 26 26 26 26 26 25 26 26 26 26 26 26 26 26 26 27 27 27 27 28 29 30 31 32 32 33 35 36 38 39 40 42 44 46 48 49 50 52 54 56 57 58 59 59 59 58 57 55 53 50 49 47 44 41 37 34 33 32 31 29 28 27 26 26 25 24 24 24 24 24 24 24 23 23 23 22 23 24 25 26 27
26 26 26 26 26 26 26 26 26 26 26 26 26 27 27 26 26 26 26 26 26 27 28 28 28 28 29 31 31 32 32 33 35 36 37 39 41 42 44 46 48 50 51 53 55 57 59 60 60 61 60 59 58 56 54 52 50 48 46 43 39 36 34 33 31 29 28 26 26 25 25 24 24 24 24 24 24 24 24 23 23 23 23 23 24 25 26
Wind_Direction
239 240 241 242 243 245 248 253 258 263 267 271 274 277 277 275 272 271 271 272 273 274 274 274 274 273 272 271 270 267 265 263 261 259 258 257 256 253 249 247 245 244 244 244 243 242 239 236 235 235 235 236 236 235 236 240 242 241 238 239 242 242 240 240 239 237 237 238 239 240 239 236 234 230 229 230 232 231 229 228 228 227 227 227 225 221 219
236 237 239 240 243 246 251 256 261 265 269 273 276 276 275 273 272 273 274 275 275 276 276 275 275 275 274 273 271 268 266 264 262 260 258 256 255 253 250 248 245 244 244 244 244 242 239 235 233 233 234 234 235 235 236 239 242 241 239 237 238 239 238 238 238 236 236 238 238 238 238 235 232 229 227 228 230 230 230 231 231 229 227 226 225 222 219
234 236 238 241 245 249 254 259 264 267 271 274 275 274 273 273 273 274 275 277 278 279 279 279 278 277 277 276 273 270 267 264 262 260 258 255 253 253 251 248 245 242 241 243 244 242 240 236 233 232 233 233 233 234 236 239 241 241 241 238 235 236 236 236 237 236 234 236 237 237 237 235 229 225 223 224 226 227 227 228 229 229 229 228 227 223 221
234 237 240 244 248 253 258 262 266 269 272 273 272 272 273 275 276 277 278 279 280 281 282 282 282 282 280 278 276 273 268 264 261 260 258 255 253 251 249 247 244 241 238 240 242 241 238 235 233 232 233 233 233 233 235 238 240 240 240 238 234 233 234 233 236 236 234 233 233 234 236 235 229 223 221 221 223 224 225 226 227 227 228 228 228 227 225
236 239 242 246 251 256 260 263 267 270 271 270 270 271 274 276 278 280 282 282 283 284 285 285 285 285 282 280 277 274 270 266 262 260 259 257 253 250 247 244 242 239 237 238 241 241 238 234 233 231 232 233 232 232 233 235 238 238 238 237 233 230 231 231 233 234 233 232 232 232 233 233 229 225 222 222 223 223 223 225 225 225 225 224 225 227 227
238 241 244 248 253 257 261 265 267 268 267 268 270 273 275 277 279 281 283 285 286 287 288 288 288 286 284 281 278 275 272 268 264 261 258 255 252 249 245 243 240 237 234 235 238 240 238 234 232 229 229 231 231 230 230 231 233 235 236 236 233 229 227 228 230 232 232 232 231 231 231 231 230 227 225 224 225 224 222 222 223 224 224 223 221 222 222
239 242 245 249 253 258 262 264 264 264 265 269 272 275 276 278 280 283 284 286 287 288 289 289 288 287 286 283 280 276 273 269 264 260 256 253 251 248 245 243 240 236 233 233 234 236 235 232 230 228 228 229 229 228 228 228 228 230 232 233 232 230 227 226 227 230 232 232 232 231 231 230 229 228 227 226 228 227 224 221 220 220 223 224 224 224 221
239 243 246 250 255 258 259 259 259 262 267 271 273 276 278 281 284 286 287 288 289 290 291 291 292 291 290 288 284 280 275 270 264 260 256 252 249 247 245 243 241 237 233 232 233 234 234 231 228 227 226 227 227 226 226 226 224 225 227 229 230 230 229 226 225 225 226 228 229 230 230 231 231 230 230 229 228 228 226 224 221 220 222 224 225 227 226
240 244 247 250 252 252 252 255 259 264 268 271 275 278 281 284 286 288 289 291 294 296 297 297 297 297 296 294 290 284 279 273 266 260 256 252 249 246 245 243 241 238 234 232 232 233 233 231 227 225 225 225 225 225 225 225 222 220 222 225 226 227 227 226 224 223 221 221 225 226 227 229 230 231 232 233 232 232 231 229 226 224 224 225 224 224 225
239 241 242 242 243 244 249 255 260 265 269 273 277 280 282 285 286 288 290 294 297 299 301 302 302 302 301 298 294 289 282 276 269 261 255 252 249 246 244 241 239 237 235 233 232 232 232 230 227 224 224 224 223 223 224 225 224 221 219 221 223 224 225 224 224 225 222 221 224 227 227 227 228 229 231 234 235 235 236 235 231 227 226 228 229 226 223
229 230 230 233 237 244 251 256 261 266 271 275 278 281 283 285 287 290 293 296 298 300 302 305 306 305 304 302 299 295 290 282 273 264 257 252 249 246 244 241 238 237 235 234 233 233 231 228 225 223 222 223 223 222 222 224 225 223 219 218 219 222 224 223 222 224 224 222 223 226 227 226 226 227 229 231 234 235 236 237 236 233 232 232 234 233 230
215 219 225 232 239 245 251 256 263 269 274 276 279 281 284 286 289 293 296 299 301 303 306 307 307 308 309 309 308 303 298 291 280 268 260 254 250 246 243 241 238 236 234 232 231 232 230 227 223 221 220 221 222 222 221 221 223 224 221 218 218 220 223 223 223 224 225 225 224 224 224 223 221 223 225 228 230 232 234 235 235 234 234 233 233 233 231
210 218 227 234 240 246 252 259 266 271 273 276 279 282 285 289 292 296 299 302 305 307 308 308 310 315 317 317 316 312 306 299 289 276 265 257 253 249 244 240 236 233 231 229 228 228 228 225 222 219 218 219 220 220 220 219 220 222 222 220 220 221 221 223 224 225 227 228 228 227 227 225 222 222 224 226 228 230 232 234 235 234 233 231 231 232 232
213 221 228 234 240 248 256 263 267 269 270 274 278 282 286 291 295 300 303 305 307 309 311 314 319 324 325 324 324 323 318 310 301 289 274 264 257 251 246 240 235 231 229 227 225 224 224 222 220 218 218 218 219 219 219 218 219 221 221 221 223 223 222 223 225 227 228 230 232 233 233 232 229 226 226 227 229 230 232 234 235 235 235 234 234 235 236
215 221 227 234 243 251 259 262 263 264 267 272 278 283 288 293 299 303 305 307 311 314 319 325 330 331 332 333 332 333 332 327 318 306 289 275 263 255 248 241 235 231 228 226 224 222 221 221 220 218 218 219 220 219 218 217 218 220 221 221 223 226 226 224 225 228 230 232 234 236 237 238 236 233 231 231 232 233 235 236 237 236 237 237 237 237 238
214 221 228 237 247 253 256 255 255 259 265 273 280 286 292 298 303 306 309 313 319 325 333 337 338 340 342 344 344 344 345 344 338 329 312 291 275 263 253 245 237 232 229 227 225 222 220 220 219 218 218 220 220 220 218 216 216 219 220 221 222 226 228 227 226 228 231 233 235 237 238 239 240 238 236 235 236 236 236 237 237 237 237 239 240 240 240
213 221 231 241 247 248 246 244 247 256 267 277 285 292 298 304 307 311 317 325 332 340 347 349 350 354 355 355 354 354 354 355 354 350 341 320 295 276 260 249 240 232 228 226 224 222 220 220 219 219 219 220 220 220 220 218 217 218 220 221 222 224 228 229 228 229 231 233 235 237 238 239 241 241 239 238 238 238 237 237 237 236 236 237 239 241 242
215 225 234 240 240 235 232 234 243 257 271 281 289 297 303 306 311 321 335 346 353 0 4 5 7 10 8 6 5 4 2 1 2 2 0 352 332 304 278 257 244 236 230 225 221 220 218 218 219 219 219 220 219 220 221 220 218 219 220 221 223 224 227 229 229 229 231 233 235 237 238 240 242 242 241 239 238 239 239 239 240 239 238 238 239 240 242
219 228 232 231 225 221 221 228 242 259 273 283 291 299 304 308 322 348 9 18 23 24 22 22 24 24 21 19 17 14 11 9 7 7 6 4 358 345 319 280 254 242 235 228 224 221 220 219 220 220 220 220 220 219 220 220 220 220 221 222 224 225 227 229 230 230 231 232 235 237 239 240 242 243 244 243 241 240 240 240 240 241 241 242 242 242 242
221 225 224 217 211 210 214 225 242 258 271 282 291 299 304 319 7 42 52 51 49 44 38 36 36 34 32 30 27 24 21 16 13 10 8 6 5 2 354 332 293 258 241 233 228 225 223 222 222 222 222 222 222 222 221 221 220 221 222 223 225 226 227 228 230 231 232 233 234 236 238 240 241 243 245 245 244 243 241 241 241 241 241 243 244 245 244
219 217 210 204 202 204 210 223 241 256 268 279 289 294 304 58 80 80 75 68 62 55 50 45 43 40 37 35 33 30 27 23 19 15 12 8 7 6 3 356 339 306 265 243 233 228 226 225 224 223 222 223 223 224 224 224 222 221 222 223 224 226 227 228 229 231 232 233 234 236 237 239 241 242 244 245 245 245 244 243 243 242 242 243 244 245 246
213 206 200 196 196 200 208 222 239 253 266 277 281 253 134 113 103 96 87 77 68 61 56 51 48 44 40 38 35 33 30 27 24 21 17 13 10 7 4 2 355 340 311 275 250 236 231 229 228 226 225 223 223 224 225 226 226 225 224 224 225 226 227 228 229 231 232 234 235 236 238 239 241 242 243 244 245 246 246 246 246 246 245 245 245 246 246
204 197 193 192 192 198 207 219 234 247 259 264 220 152 135 122 111 101 91 80 72 65 59 55 50 45 41 39 37 34 32 29 27 25 22 19 16 10 4 0 357 350 336 312 284 260 246 238 234 232 230 228 226 225 226 227 228 228 228 228 227 228 229 230 230 232 233 234 236 237 238 239 241 242 243 244 245 246 247 247 248 249 249 249 249 248 248
196 191 189 189 191 196 204 214 226 236 237 215 166 145 136 127 116 104 92 81 72 63 57 52 47 43 39 37 35 34 32 30 29 27 25 23 21 17 10 3 357 350 342 331 311 287 267 253 244 239 236 233 231 230 229 228 229 230 230 231 231 231 231 231 232 234 235 236 237 238 239 240 241 242 243 245 246 246 247 248 249 250 251 251 252 252 252
191 188 187 187 190 194 199 207 215 218 208 180 157 145 139 131 119 104 88 74 63 54 48 44 42 39 35 33 32 31 30 29 28 27 25 23 22 20 16 10 2 352 343 334 324 308 286 267 255 249 244 239 236 233 232 231 230 230 231 231 232 232 232 233 234 235 236 237 239 240 240 241 242 243 244 245 247 248 248 249 250 251 252 252 253 254 255
188 187 186 187 190 192 194 199 204 203 189 167 154 148 141 127 111 94 75 59 48 40 36 33 32 31 29 28 28 27 26 26 25 24 23 22 20 18 16 12 7 360 349 338 328 319 305 287 271 258 251 246 242 239 236 234 233 232 233 233 234 235 235 235 235 236 237 238 239 240 241 242 243 243 244 245 247 248 249 250 251 251 252 253 254 255 256
187 186 186 187 189 190 191 193 196 193 179 163 155 151 141 121 100 80 58 41 31 26 23 22 21 22 22 22 22 23 22 22 22 22 21 20 18 16 14 10 7 3 357 347 334 322 310 301 291 279 266 255 249 245 242 239 237 236 235 236 237 238 238 238 238 238 239 239 240 241 242 243 244 245 245 245 246 247 249 250 250 251 252 253 254 255 256
187 186 186 187 188 188 188 189 190 186 174 162 154 148 136 111 82 60 45 36 30 25 22 19 17 16 16 17 17 18 18 18 18 18 18 17 16 15 12 9 5 2 357 350 340 327 314 304 297 292 284 274 263 256 250 246 243 241 239 239 239 239 240 241 241 241 241 241 242 243 244 245 245 246 247 247 248 248 248 249 250 250 251 252 253 254 255
187 186 186 187 188 187 185 186 186 181 171 160 151 140 122 94 70 53 44 40 36 31 26 23 19 17 16 15 14 14 13 14 14 15 15 14 14 12 10 8 5 1 357 350 341 331 320 309 300 293 287 281 275 269 263 257 250 246 243 242 242 241 242 243 243 244 244 244 244 245 246 246 247 248 249 249 249 249 250 250 251 251 251 252 253 254 254
188 187 187 188 188 186 184 186 186 179 167 157 146 132 114 92 73 57 46 41 36 30 26 24 22 19 16 14 12 11 10 10 11 11 11 11 11 10 9 7 4 1 356 351 344 336 326 316 306 297 287 280 276 273 271 268 263 256 250 247 246 244 244 244 245 245 246 247 247 247 248 248 249 250 251 251 252 251 252 252 252 253 253 253 253 253 254
189 188 188 189 189 186 184 186 187 180 170 159 147 134 119 100 81 61 46 38 32 26 21 19 18 16 14 12 10 8 7 7 7 7 7 8 8 8 7 6 4 1 357 351 346 339 331 322 314 305 295 285 279 276 274 272 271 267 262 256 252 250 248 248 247 247 247 248 248 249 250 250 250 251 252 253 254 254 254 254 254 253 254 254 254 254 254
191 190 190 191 190 187 186 187 187 183 177 169 156 143 127 107 80 54 35 24 21 19 17 14 12 11 10 9 8 6 5 5 4 3 4 4 5 5 5 5 4 1 358 353 348 342 336 330 323 315 305 296 289 283 280 276 273 270 267 263 259 256 254 252 251 251 250 250 250 250 250 251 252 252 253 253 254 255 256 256 256 255 254 254 255 255 255
192 192 192 193 192 189 189 190 190 189 188 182 171 161 150 128 57 17 8 5 6 8 8 8 8 6 5 5 5 3 3 2 1 0 0 1 2 2 3 3 3 1 359 355 350 346 341 336 330 323 315 308 300 293 286 280 275 272 271 269 265 261 258 255 254 254 254 254 253 253 252 252 252 252 253 254 254 255 255 256 257 257 257 257 257 256 256
194 194 194 194 194 193 193 195 197 199 201 198 193 191 190 201 341 345 348 351 356 360 1 2 3 1 360 1 1 0 360 360 359 358 357 358 359 360 -0 0 0 360 359 356 352 348 344 340 336 330 324 318 310 301 291 283 278 276 275 273 270 266 262 259 257 256 256 256 255 255 254 254 253 253 253 254 254 254 255 256 257 258 259 259 259 259 259
196 197 197 196 196 197 198 201 205 209 212 213 214 219 229 282 332 339 342 345 350 354 356 358 358 356 355 356 358 357 357 357 356 355 354 355 356 357 357 357 357 357 357 355 353 350 347 344 340 335 330 324 317 309 300 292 287 284 280 277 274 271 268 265 262 259 258 257 256 256 256 255 255 254 254 254 254 255 256 256 257 258 258 259 259 260 260
198 199 200 199 199 200 202 205 209 214 219 223 229 240 257 295 319 330 336 339 343 348 351 353 353 351 351 352 354 354 354 354 354 353 352 352 353 354 354 354 354 354 354 354 353 351 349 346 343 339 334 329 323 315 307 300 294 289 285 281 278 275 272 270 267 265 262 260 259 258 257 256 255 255 255 256 256 257 258 258 258 258 259 259 259 260 260
200 202 203 203 203 204 206 209 213 217 223 230 238 251 269 289 303 313 322 329 334 341 345 346 346 347 347 349 350 351 351 351 351 350 350 349 350 351 351 351 351 351 352 352 352 351 349 346 344 342 339 335 330 323 316 308 300 294 288 284 281 277 274 272 271 270 269 267 265 263 261 259 257 257 258 259 260 260 260 261 261 261 261 260 260 261 261
201 203 205 206 206 207 209 212 216 220 226 233 242 255 269 281 291 300 310 318 324 331 336 339 340 342 343 344 346 348 348 347 347 347 347 347 348 348 348 348 348 349 349 350 350 349 348 347 345 343 341 338 334 330 324 316 308 300 293 287 282 278 274 272 272 271 272 272 272 271 269 267 265 263 263 263 262 261 262 263 264 264 263 262 262 262 262
203 205 208 209 210 210 212 215 219 222 227 235 243 254 267 276 285 293 302 310 317 323 327 331 334 337 339 340 341 343 345 345 344 344 344 344 345 346 346 345 346 346 347 348 348 348 347 347 346 343 342 339 336 333 329 324 317 310 303 296 289 284 279 275 273 272 271 272 274 275 275 274 273 270 268 266 264 263 263 263 263 264 264 263 263 262 262
205 208 210 212 213 215 217 219 222 226 231 237 245 254 264 274 282 289 298 306 312 316 319 323 328 332 335 337 338 339 340 342 342 341 341 342 343 343 343 343 343 344 345 345 346 346 347 347 346 344 342 341 339 337 333 329 323 317 311 304 298 293 288 283 279 276 274 273 274 276 277 277 276 274 272 269 267 265 264 263 262 262 263 263 262 262 261
208 210 212 214 216 218 220 223 226 229 234 240 246 254 262 271 279 286 293 300 306 310 314 318 323 328 331 333 334 335 337 338 339 339 339 339 340 341 341 341 340 342 343 343 344 345 346 347 345 344 343 342 340 339 336 332 327 321 315 309 303 298 294 290 286 284 281 279 277 277 277 278 278 277 275 272 269 266 265 264 262 261 261 261 261 261 260
211 213 215 217 219 221 223 226 229 233 237 242 248 255 262 270 277 283 288 294 301 306 310 314 318 323 327 330 331 332 333 335 336 337 337 337 338 339 339 339 339 340 341 341 342 344 345 345 345 344 344 343 342 341 339 336 331 325 319 314 309 304 299 295 292 290 288 285 283 281 280 279 278 278 276 274 272 269 266 264 263 261 260 259 259 260 260
213 215 218 219 221 223 226 229 232 236 241 245 250 256 262 270 276 281 286 292 298 303 307 311 315 319 323 326 328 329 330 332 334 335 335 335 335 336 337 337 337 338 339 340 341 342 343 344 345 344 344 343 342 342 340 338 333 328 322 317 313 308 303 299 297 294 292 291 289 287 284 281 280 278 277 275 273 270 267 264 263 262 260 259 259 259 260
216 218 219 222 224 227 229 232 235 239 243 248 252 257 263 270 275 281 285 291 296 300 304 308 312 316 320 322 325 326 328 330 331 332 332 333 334 334 335 335 335 336 337 339 339 340 342 343 344 344 344 344 343 342 341 339 335 330 325 320 316 311 307 303 300 297 294 293 292 291 289 286 282 279 277 275 273 270 266 263 262 261 261 260 260 260 260
219 220 222 224 227 229 232 235 238 241 245 250 254 258 263 269 275 279 284 289 293 297 301 305 309 313 316 319 322 324 326 327 329 330 330 331 332 333 333 334 334 335 336 337 337 339 340 342 343 344 345 344 344 343 342 340 338 334 329 324 320 317 313 310 306 302 299 296 295 293 291 288 285 281 278 276 274 271 267 263 261 261 261 261 261 261 260
222 223 224 227 229 231 234 237 240 244 247 251 255 259 263 268 273 277 281 286 290 294 298 302 306 310 313 316 319 322 324 325 327 328 329 330 331 332 332 332 333 334 335 336 336 337 339 341 342 344 344 344 344 344 343 341 339 336 333 329 325 321 318 316 312 308 304 301 298 296 293 290 287 284 281 278 275 272 269 266 263 261 262 262 262 262 260
224 225 227 229 231 233 235 238 242 245 249 253 257 260 263 267 271 275 279 284 288 292 296 300 303 307 311 314 316 319 322 324 326 327 327 328 330 331 331 331 332 333 335 335 335 337 338 340 341 343 343 343 344 344 343 342 340 337 334 331 328 324 320 318 316 313 310 306 302 299 296 293 288 285 282 279 275 273 271 269 266 263 261 261 262 263 261
226 227 229 231 233 235 237 240 243 247 251 255 258 262 264 267 270 274 278 283 287 291 295 299 302 306 310 312 315 318 320 323 325 326 326 327 328 330 330 330 331 332 334 334 335 336 337 339 341 342 343 343 343 344 343 342 340 338 335 332 330 326 322 320 319 316 313 309 305 302 298 295 291 287 283 279 276 273 272 270 269 266 263 261 261 262 262
228 229 230 232 234 236 238 240 243 247 251 254 258 261 264 267 269 273 277 282 286 290 294 298 301 305 308 311 313 316 319 321 324 325 325 325 327 329 329 330 330 332 333 334 334 335 336 338 340 341 342 342 343 343 343 342 341 338 336 334 331 328 324 321 319 317 314 310 306 302 299 295 292 288 284 280 276 273 272 271 270 269 267 265 263 262 261
231 232 233 235 236 238 239 240 243 246 249 252 256 260 263 266 269 272 276 280 284 288 292 296 300 303 307 310 312 315 317 321 323 324 324 325 326 328 329 329 330 332 333 333 334 335 336 337 339 340 341 341 342 342 342 342 341 339 336 334 332 329 326 322 320 318 315 311 306 302 298 294 290 287 284 281 278 275 273 272 271 269 267 266 265 264 262
232 234 235 236 238 240 240 241 243 246 248 251 254 258 262 265 269 272 275 278 282 286 290 294 298 302 306 309 311 313 316 320 322 323 323 324 325 327 328 329 330 331 332 333 333 334 335 337 338 339 339 340 340 341 342 342 341 340 337 335 333 331 328 325 322 319 316 311 306 301 298 294 290 287 285 283 280 278 276 274 272 270 267 266 265 265 264
234 235 236 238 239 241 242 243 245 247 250 252 255 258 261 264 268 272 275 278 282 286 290 294 297 301 304 307 309 312 316 319 321 322 323 323 325 326 328 328 329 331 332 333 333 334 335 336 337 338 338 338 339 340 341 341 341 340 338 335 333 331 329 326 323 320 316 311 306 301 297 295 292 289 286 284 282 281 279 277 274 272 270 268 266 265 264
Height
10387 10389 10391 10394 10396 10398 10400 10401 10402 10403 10404 10404 10403 10401 10400 10400 10400 10399 10398 10398 10397 10397 10397 10396 10395 10394 10394 10393 10394 10395 10394 10393 10391 10391 10392 10393 10395 10398 10399 10402 10405 10408 10410 10411 10412 10415 10420 10425 10429 10432 10435 10436 10437 10441 10444 10444 10446 10452 10457 10460 10461 10463 10462 10462 10463 10465 10466 10466 10468 10470 10471 10472 10476 10480 10483 10485 10487 10491 10493 10494 10497 10501 10505 10509 10514 10519 10523
10383 10385 10387 10389 10392 10394 10396 10397 10398 10399 10399 10398 10398 10396 10394 10394 10394 10394 10393 10392 10391 10390 10390 10389 10388 10388 10387 10386 10386 10386 10386 10385 10383 10382 10384 10385 10386 10388 10391 10395 10399 10403 10405 10404 10403 10407 10412 10419 10424 10426 10428 10430 10432 10436 10439 10439 10442 10447 10451 10454 10457 10458 10458 10458 10458 10460 10462 10463 10465 10467 10467 10469 10474 10477 10479 10481 10484 10488 10490 10492 10495 10499 10503 10506 10511 10515 10518
10379 10381 10383 10385 10387 10390 10392 10393 10393 10394 10394 10393 10392 10391 10389 10389 10389 10389 10388 10386 10385 10384 10382 10382 10381 10381 10380 10378 10377 10377 10377 10377 10375 10372 10373 10376 10378 10380 10384 10388 10391 10395 10398 10395 10394 10398 10405 10412 10417 10419 10420 10424 10427 10431 10433 10435 10438 10441 10444 10449 10452 10453 10453 10454 10453 10456 10459 10460 10462 10463 10463 10466 10471 10473 10475 10477 10480 10483 10485 10488 10492 10496 10500 10503 10508 10511 10514
10375 10377 10379 10381 10383 10386 10387 10388 10389 10389 10388 10388 10388 10387 10385 10384 10383 10383 10382 10381 10379 10378 10376 10375 10374 10373 10372 10370 10368 10368 10368 10368 10366 10363 10364 10368 10370 10373 10376 10379 10382 10386 10388 10387 10384 10388 10397 10404 10408 10411 10414 10418 10421 10425 10428 10430 10433 10435 10438 10443 10447 10448 10449 10449 10449 10451 10454 10456 10457 10458 10459 10463 10467 10469 10471 10474 10476 10478 10481 10483 10487 10491 10496 10500 10504 10507 10509
10371 10373 10375 10378 10380 10381 10383 10384 10384 10383 10383 10383 10383 10383 10381 10380 10379 10377 10376 10374 10373 10372 10370 10369 10367 10366 10365 10363 10361 10360 10359 10359 10358 10356 10357 10360 10362 10364 10367 10368 10370 10375 10379 10379 10377 10380 10389 10396 10400 10404 10409 10412 10415 10419 10422 10423 10426 10429 10432 10436 10440 10443 10444 10444 10445 10446 10449 10451 10453 10455 10456 10458 10462 10466 10468 10470 10472 10475 10477 10479 10483 10487 10491 10495 10498 10502 10505
10366 10369 10372 10374 10376 10378 10379 10379 10379 10379 10379 10379 10379 10378 10377 10376 10374 10373 10371 10369 10367 10365 10364 10363 10361 10360 10358 10357 10355 10353 10352 10352 10351 10350 10351 10352 10353 10355 10357 10357 10360 10365 10369 10370 10369 10372 10380 10387 10391 10397 10401 10404 10408 10412 10414 10416 10419 10423 10426 10429 10432 10436 10438 10440 10441 10442 10443 10446 10449 10451 10453 10455 10458 10461 10463 10466 10468 10470 10473 10476 10479 10483 10485 10488 10492 10495 10499
10363 10365 10368 10371 10372 10374 10374 10374 10374 10375 10375 10375 10375 10374 10373 10371 10370 10369 10367 10364 10362 10361 10359 10357 10356 10354 10352 10351 10349 10347 10346 10345 10344 10343 10344 10344 10345 10346 10348 10349 10353 10358 10361 10362 10361 10363 10369 10378 10384 10390 10393 10396 10400 10405 10407 10409 10413 10417 10419 10422 10425 10428 10432 10435 10436 10437 10439 10442 10445 10447 10449 10452 10454 10456 10459 10461 10463 10465 10468 10471 10475 10478 10481 10483 10486 10489 10493
10359 10362 10365 10367 10369 10370 10370 10370 10371 10371 10372 10372 10371 10369 10368 10367 10365 10364 10361 10359 10357 10356 10355 10353 10351 10349 10347 10345 10343 10342 10340 10339 10338 10337 10337 10337 10338 10339 10341 10343 10347 10350 10353 10354 10353 10355 10361 10369 10376 10382 10385 10388 10393 10398 10401 10403 10406 10409 10412 10416 10419 10422 10425 10428 10431 10433 10435 10438 10440 10443 10446 10449 10451 10452 10454 10456 10458 10460 10463 10466 10470 10473 10476 10479 10482 10485 10488
10356 10359 10361 10363 10365 10366 10366 10366 10367 10368 10368 10368 10367 10365 10364 10362 10361 10359 10357 10354 10352 10351 10349 10347 10346 10344 10342 10340 10338 10337 10335 10333 10332 10332 10331 10332 10332 10333 10335 10338 10340 10342 10345 10346 10347 10350 10355 10362 10369 10374 10378 10382 10387 10391 10394 10396 10398 10401 10406 10410 10413 10415 10418 10422 10425 10427 10430 10433 10435 10438 10442 10445 10446 10447 10449 10451 10452 10454 10457 10461 10465 10468 10471 10474 10477 10480 10483
10353 10355 10358 10360 10361 10362 10363 10363 10364 10364 10364 10364 10362 10361 10360 10359 10357 10355 10353 10352 10349 10347 10345 10343 10341 10339 10337 10335 10333 10332 10330 10329 10327 10327 10327 10327 10327 10328 10329 10332 10334 10335 10337 10339 10342 10345 10350 10356 10361 10367 10371 10375 10380 10383 10385 10388 10392 10396 10400 10404 10406 10408 10411 10416 10418 10420 10424 10428 10430 10433 10437 10439 10441 10443 10444 10446 10447 10450 10453 10456 10459 10463 10466 10469 10471 10474 10477
10349 10352 10354 10356 10357 10359 10359 10360 10361 10361 10361 10360 10359 10358 10357 10355 10354 10352 10350 10349 10347 10344 10342 10339 10337 10335 10333 10331 10329 10327 10326 10325 10323 10323 10323 10323 10323 10324 10325 10326 10328 10330 10332 10335 10338 10341 10345 10350 10355 10360 10365 10368 10372 10375 10378 10383 10388 10391 10394 10397 10400 10402 10406 10410 10411 10413 10417 10421 10423 10426 10429 10432 10435 10438 10439 10440 10442 10445 10448 10451 10454 10457 10461 10464 10465 10468 10471
10347 10349 10351 10353 10354 10355 10356 10357 10357 10357 10357 10356 10355 10354 10353 10352 10351 10349 10347 10346 10344 10341 10339 10337 10335 10332 10330 10328 10326 10324 10322 10321 10320 10319 10319 10319 10319 10320 10320 10322 10324 10326 10328 10330 10333 10336 10340 10345 10349 10353 10357 10360 10363 10367 10372 10379 10384 10386 10388 10391 10393 10396 10400 10404 10406 10408 10411 10413 10415 10417 10420 10423 10427 10429 10431 10434 10436 10438 10441 10445 10448 10451 10455 10458 10460 10461 10465
10344 10346 10348 10350 10351 10352 10353 10354 10354 10354 10354 10353 10352 10352 10350 10349 10348 10346 10345 10343 10341 10339 10337 10334 10332 10330 10327 10325 10323 10321 10319 10318 10317 10316 10316 10316 10316 10316 10317 10318 10319 10321 10323 10325 10328 10330 10334 10339 10343 10347 10349 10352 10355 10360 10366 10373 10377 10380 10382 10384 10386 10390 10395 10398 10401 10403 10405 10407 10408 10410 10412 10415 10420 10422 10424 10428 10430 10433 10436 10439 10442 10445 10448 10451 10453 10455 10458
10342 10344 10345 10347 10348 10349 10350 10350 10351 10351 10351 10350 10350 10349 10348 10347 10346 10344 10342 10340 10338 10337 10335 10332 10330 10328 10326 10323 10321 10319 10317 10316 10315 10314 10313 10313 10313 10313 10313 10314 10315 10317 10318 10320 10323 10325 10329 10333 10337 10341 10344 10346 10348 10353 10361 10368 10371 10374 10377 10379 10381 10385 10389 10393 10395 10397 10399 10401 10402 10403 10406 10410 10414 10417 10420 10422 10425 10428 10431 10433 10436 10439 10442 10444 10447 10449 10452
10340 10341 10343 10344 10345 10346 10347 10348 10348 10348 10348 10348 10348 10347 10346 10345 10343 10342 10340 10338 10336 10334 10332 10330 10328 10326 10324 10322 10320 10318 10316 10314 10313 10312 10311 10310 10310 10310 10311 10311 10312 10314 10315 10316 10319 10321 10324 10328 10332 10336 10338 10340 10343 10349 10356 10362 10366 10369 10372 10374 10376 10379 10383 10387 10390 10391 10393 10395 10396 10398 10401 10404 10408 10413 10416 10418 10421 10424 10427 10429 10432 10434 10436 10439 10441 10443 10446
10337 10339 10341 10342 10343 10344 10344 10345 10345 10346 10346 10346 10346 10345 10344 10342 10341 10340 10338 10336 10334 10333 10331 10329 10327 10324 10322 10320 10318 10317 10315 10313 10312 10310 10310 10309 10308 10308 10309 10309 10310 10311 10312 10314 10316 10318 10321 10324 10327 10331 10333 10336 10340 10344 10350 10355 10359 10363 10366 10369 10371 10373 10377 10381 10384 10386 10388 10390 10391 10393 10396 10398 10402 10407 10411 10414 10417 10420 10423 10425 10427 10429 10431 10433 10434 10437 10440
10335 10337 10338 10339 10340 10341 10342 10343 10344 10344 10345 10345 10344 10343 10342 10340 10339 10338 10336 10335 10333 10331 10330 10328 10326 10323 10321 10319 10317 10315 10314 10312 10311 10310 10309 10308 10307 10307 10307 10308 10308 10309 10310 10311 10313 10316 10318 10320 10323 10326 10328 10332 10336 10340 10344 10349 10354 10356 10360 10363 10365 10367 10370 10375 10379 10381 10382 10383 10385 10387 10390 10392 10395 10399 10404 10407 10410 10412 10416 10418 10421 10423 10425 10426 10427 10429 10432
10333 10335 10336 10337 10338 10339 10340 10341 10342 10343 10343 10343 10342 10341 10340 10339 10338 10337 10335 10334 10332 10331 10329 10328 10326 10323 10321 10319 10317 10315 10313 10311 10310 10309 10308 10307 10306 10306 10306 10306 10306 10307 10308 10309 10311 10312 10314 10316 10319 10321 10324 10327 10332 10336 10340 10345 10348 10351 10354 10358 10360 10362 10365 10368 10372 10375 10376 10377 10378 10380 10383 10386 10388 10391 10395 10400 10402 10405 10408 10411 10414 10417 10419 10420 10421 10422 10424
10331 10333 10334 10335 10336 10338 10339 10340 10341 10341 10341 10341 10340 10340 10339 10338 10337 10336 10335 10334 10332 10331 10329 10328 10326 10324 10322 10320 10317 10315 10313 10311 10310 10308 10307 10307 10306 10305 10305 10305 10305 10306 10306 10308 10309 10310 10312 10313 10315 10317 10320 10324 10328 10331 10335 10339 10344 10347 10350 10353 10355 10358 10360 10363 10365 10368 10369 10371 10372 10374 10377 10379 10382 10384 10387 10391 10395 10398 10400 10403 10406 10408 10411 10412 10414 10416 10418
10329 10331 10332 10333 10335 10336 10338 10339 10340 10340 10340 10340 10339 10338 10338 10337 10336 10335 10335 10334 10332 10331 10330 10328 10326 10324 10322 10320 10318 10316 10314 10312 10311 10309 10308 10307 10306 10305 10305 10304 10304 10305 10305 10306 10308 10309 10310 10312 10313 10316 10319 10322 10325 10327 10330 10334 10338 10342 10346 10348 10351 10353 10355 10357 10359 10360 10362 10364 10366 10368 10370 10372 10375 10378 10380 10383 10386 10389 10392 10394 10397 10399 10401 10403 10405 10406 10408
10327 10329 10330 10332 10334 10335 10337 10338 10338 10339 10339 10339 10338 10338 10337 10336 10336 10335 10335 10334 10333 10331 10330 10329 10327 10325 10323 10321 10319 10317 10315 10314 10312 10310 10308 10307 10306 10305 10304 10304 10304 10304 10304 10305 10306 10307 10308 10309 10311 10313 10316 10319 10321 10324 10327 10329 10332 10335 10338 10341 10344 10347 10349 10350 10351 10352 10354 10356 10358 10360 10362 10365 10367 10370 10372 10375 10377 10380 10382 10385 10387 10389 10392 10394 10395 10396 10398
10325 10327 10329 10331 10332 10334 10336 10337 10337 10338 10338 10337 10337 10337 10336 10336 10336 10335 10335 10334 10333 10332 10331 10329 10328 10326 10324 10322 10320 10319 10317 10315 10313 10311 10310 10308 10306 10305 10304 10304 10303 10303 10303 10303 10304 10305 10306 10307 10309 10311 10313 10315 10318 10320 10322 10325 10327 10330 10332 10334 10337 10339 10341 10342 10343 10344 10346 10347 10350 10352 10355 10357 10360 10362 10364 10366 10368 10370 10373 10375 10377 10379 10381 10383 10385 10386 10387
10324 10326 10328 10329 10331 10333 10334 10335 10336 10336 10336 10336 10336 10336 10336 10336 10336 10335 10335 10334 10333 10332 10331 10330 10329 10327 10325 10324 10322 10320 10318 10316 10314 10313 10311 10309 10307 10306 10305 10304 10303 10303 10302 10302 10302 10303 10304 10306 10307 10308 10310 10312 10315 10317 10318 10320 10323 10325 10327 10329 10331 10332 10333 10335 10336 10337 10338 10340 10342 10345 10348 10350 10352 10354 10355 10357 10359 10361 10363 10366 10367 10369 10370 10372 10374 10374 10375
10322 10324 10326 10328 10330 10332 10333 10334 10335 10335 10335 10335 10335 10335 10336 10336 10335 10335 10335 10334 10333 10332 10331 10330 10329 10328 10326 10325 10323 10321 10319 10317 10315 10314 10312 10310 10308 10307 10305 10304 10303 10302 10302 10302 10302 10302 10302 10303 10304 10305 10307 10309 10312 10313 10314 10316 10318 10320 10321 10323 10324 10325 10327 10330 10331 10332 10333 10334 10335 10338 10340 10341 10343 10345 10347 10348 10350 10353 10354 10356 10358 10359 10360 10361 10362 10362 10364
10321 10323 10325 10327 10329 10331 10332 10333 10334 10334 10334 10334 10335 10335 10335 10335 10335 10335 10334 10334 10333 10332 10331 10330 10329 10328 10327 10325 10323 10322 10320 10318 10316 10315 10313 10311 10309 10308 10306 10305 10304 10302 10301 10301 10301 10301 10301 10301 10301 10302 10304 10306 10307 10308 10310 10311 10312 10313 10314 10314 10315 10317 10320 10322 10324 10325 10327 10328 10329 10331 10332 10333 10335 10337 10339 10340 10342 10343 10345 10347 10349 10350 10350 10351 10352 10353 10354
10319 10322 10324 10326 10328 10329 10331 10332 10333 10333 10334 10334 10334 10334 10335 10335 10335 10334 10334 10334 10333 10332 10331 10330 10329 10328 10327 10325 10324 10322 10320 10319 10317 10315 10313 10312 10310 10308 10307 10305 10304 10303 10302 10301 10300 10299 10299 10299 10299 10300 10301 10302 10302 10303 10304 10305 10306 10307 10308 10308 10308 10310 10312 10315 10316 10318 10319 10321 10321 10322 10323 10324 10327 10329 10331 10332 10333 10334 10335 10338 10339 10341 10341 10342 10342 10343 10345
10318 10321 10323 10325 10327 10328 10330 10331 10332 10332 10333 10333 10334 10334 10334 10334 10334 10334 10334 10333 10333 10332 10331 10330 10329 10328 10327 10325 10324 10322 10320 10319 10317 10316 10314 10312 10310 10308 10307 10305 10304 10303 10302 10301 10299 10298 10297 10296 10297 10297 10298 10298 10298 10297 10298 10299 10300 10302 10303 10303 10304 10305 10306 10307 10309 10310 10311 10311 10312 10312 10313 10314 10317 10319 10321 10323 10324 10325 10326 10328 10329 10330 10331 10332 10332 10333 10335
10317 10319 10322 10324 10325 10327 10329 10330 10331 10332 10332 10333 10333 10333 10334 10334 10334 10334 10333 10333 10332 10331 10331 10330 10328 10327 10326 10325 10323 10322 10320 10319 10317 10316 10314 10312 10310 10308 10307 10305 10303 10302 10301 10300 10298 10297 10296 10295 10295 10294 10294 10294 10293 10293 10293 10294 10295 10296 10298 10298 10299 10299 10299 10299 10300 10301 10302 10302 10302 10303 10303 10305 10307 10308 10310 10312 10313 10314 10315 10316 10317 10319 10320 10321 10322 10323 10325
10316 10318 10321 10323 10324 10326 10328 10329 10330 10331 10331 10332 10332 10333 10333 10333 10333 10333 10333 10332 10332 10331 10330 10329 10328 10327 10326 10324 10323 10322 10320 10319 10317 10315 10313 10312 10310 10308 10306 10304 10302 10301 10300 10298 10297 10296 10295 10294 10293 10292 10291 10290 10289 10288 10288 10288 10289 10291 10292 10292 10292 10292 10293 10292 10293 10293 10293 10293 10294 10294 10295 10296 10297 10298 10299 10300 10301 10302 10303 10304 10306 10308 10309 10310 10311 10313 10315
10315 10317 10320 10321 10323 10325 10327 10328 10329 10330 10331 10331 10331 10332 10332 10332 10332 10332 10332 10331 10331 10330 10330 10329 10328 10327 10325 10324 10323 10321 10320 10318 10316 10315 10313 10311 10309 10307 10305 10303 10301 10300 10298 10297 10295 10294 10293 10292 10291 10290 10289 10287 10285 10284 10283 10282 10283 10285 10286 10286 10286 10286 10286 10286 10285 10285 10284 10284 10284 10285 10286 10287 10288 10287 10287 10288 10289 10290 10292 10294 10295 10296 10297 10298 10300 10302 10304
10314 10316 10318 10320 10322 10324 10326 10327 10328 10329 10329 10330 10330 10331 10331 10331 10332 10331 10331 10331 10330 10330 10329 10328 10327 10326 10325 10323 10322 10321 10319 10317 10315 10314 10312 10310 10308 10307 10305 10302 10300 10298 10296 10295 10293 10292 10290 10289 10288 10288 10286 10284 10282 10280 10279 10278 10278 10278 10279 10279 10279 10280 10280 10279 10278 10277 10276 10276 10276 10277 10277 10278 10278 10278 10278 10277 10278 10278 10279 10281 10282 10283 10284 10285 10287 10289 10291
10312 10315 10317 10319 10321 10323 10324 10326 10327 10327 10328 10329 10329 10330 10330 10330 10330 10330 10330 10330 10330 10329 10328 10327 10326 10325 10324 10322 10321 10319 10318 10316 10314 10313 10311 10309 10307 10305 10303 10301 10299 10297 10295 10293 10291 10289 10288 10286 10285 10284 10283 10281 10279 10277 10275 10274 10273 10272 10272 10272 10273 10273 10273 10272 10271 10269 10268 10268 10268 10268 10269 10269 10269 10269 10268 10268 10268 10267 10266 10265 10266 10268 10270 10272 10274 10276 10278
10311 10313 10316 10318 10320 10322 10323 10324 10325 10326 10327 10328 10328 10329 10329 10329 10329 10329 10329 10329 10328 10328 10327 10326 10325 10324 10323 10321 10320 10318 10317 10315 10313 10311 10309 10308 10306 10303 10301 10299 10297 10295 10293 10291 10288 10286 10285 10283 10282 10280 10279 10278 10275 10273 10271 10270 10267 10266 10265 10266 10266 10267 10267 10265 10264 10262 10261 10261 10260 10260 10260 10260 10260 10260 10259 10258 10258 10257 10255 10253 10253 10254 10257 10259 10262 10264 10266
10310 10312 10314 10316 10318 10320 10322 10323 10324 10325 10326 10326 10327 10327 10328 10328 10328 10328 10328 10328 10327 10327 10326 10325 10324 10323 10321 10320 10319 10317 10315 10314 10312 10309 10307 10306 10304 10302 10299 10297 10295 10293 10291 10288 10286 10283 10282 10280 10279 10277 10275 10274 10271 10269 10266 10264 10262 10261 10260 10260 10259 10260 10259 10258 10257 10256 10254 10253 10253 10252 10252 10252 10252 10251 10250 10249 10247 10246 10245 10244 10244 10245 10247 10248 10250 10252 10253
10308 10310 10313 10315 10317 10318 10320 10322 10323 10324 10324 10325 10325 10326 10326 10326 10327 10326 10326 10326 10326 10325 10325 10324 10323 10322 10320 10319 10317 10316 10314 10312 10310 10308 10306 10304 10302 10300 10297 10295 10293 10291 10288 10286 10284 10281 10278 10276 10275 10273 10271 10270 10267 10265 10262 10259 10257 10256 10255 10254 10253 10252 10252 10251 10250 10248 10247 10246 10245 10244 10243 10243 10243 10242 10241 10239 10237 10236 10236 10236 10236 10237 10238 10239 10239 10240 10240
10306 10309 10311 10313 10315 10317 10319 10320 10321 10322 10323 10323 10324 10324 10325 10325 10325 10325 10325 10325 10324 10324 10323 10323 10322 10321 10319 10317 10316 10314 10312 10310 10308 10306 10304 10302 10299 10297 10295 10293 10291 10288 10286 10284 10281 10278 10275 10273 10271 10269 10267 10265 10263 10261 10258 10256 10253 10251 10250 10248 10247 10245 10244 10242 10241 10240 10239 10238 10237 10236 10236 10235 10234 10232 10231 10230 10229 10229 10229 10228 10228 10229 10230 10231 10231 10231 10231
10304 10307 10309 10311 10313 10315 10317 10318 10319 10320 10321 10322 10322 10323 10323 10323 10323 10323 10323 10323 10323 10323 10322 10321 10320 10319 10318 10316 10314 10313 10310 10309 10307 10305 10303 10300 10298 10295 10293 10291 10288 10286 10284 10281 10278 10276 10273 10270 10267 10265 10262 10260 10257 10255 10253 10251 10249 10247 10245 10243 10241 10239 10237 10235 10233 10232 10230 10229 10228 10228 10228 10226 10225 10224 10223 10223 10223 10223 10221 10219 10220 10221 10222 10223 10223 10223 10223
10303 10305 10307 10310 10312 10314 10315 10317 10318 10319 10320 10320 10321 10321 10322 10322 10322 10322 10322 10321 10321 10321 10321 10320 10319 10318 10316 10315 10313 10311 10309 10307 10305 10303 10301 10299 10296 10294 10291 10289 10286 10283 10281 10278 10276 10273 10270 10267 10264 10262 10259 10256 10253 10250 10247 10245 10243 10241 10240 10238 10236 10234 10231 10229 10227 10225 10223 10220 10219 10218 10218 10217 10218 10218 10217 10217 10217 10216 10214 10212 10212 10214 10214 10215 10215 10216 10215
10301 10303 10305 10307 10310 10312 10313 10315 10316 10317 10318 10319 10319 10320 10320 10320 10320 10320 10320 10319 10319 10319 10319 10318 10318 10316 10315 10313 10311 10310 10308 10306 10303 10301 10299 10296 10294 10292 10289 10286 10284 10281 10278 10275 10272 10270 10267 10264 10261 10258 10255 10252 10249 10246 10243 10239 10237 10235 10233 10231 10230 10227 10225 10223 10221 10219 10217 10214 10211 10209 10209 10208 10209 10210 10210 10210 10210 10209 10207 10206 10206 10206 10206 10206 10208 10208 10208
10299 10301 10303 10306 10308 10310 10311 10313 10314 10315 10316 10317 10318 10318 10318 10318 10318 10318 10318 10317 10317 10317 10317 10316 10315 10314 10313 10311 10309 10307 10306 10304 10301 10299 10297 10294 10292 10289 10287 10284 10281 10278 10275 10272 10270 10266 10263 10260 10256 10254 10251 10248 10245 10242 10238 10235 10232 10229 10227 10224 10223 10221 10218 10215 10214 10213 10211 10208 10205 10203 10201 10201 10201 10201 10201 10201 10202 10201 10200 10198 10198 10198 10198 10199 10200 10200 10200
10297 10299 10301 10304 10306 10308 10309 10311 10312 10313 10314 10315 10316 10316 10317 10316 10316 10316 10316 10315 10315 10315 10315 10314 10313 10312 10311 10309 10307 10305 10303 10301 10299 10296 10294 10292 10289 10287 10284 10281 10278 10276 10273 10269 10266 10263 10260 10257 10253 10250 10246 10243 10240 10237 10234 10230 10227 10224 10221 10218 10216 10214 10211 10208 10206 10204 10203 10201 10199 10197 10195 10193 10193 10192 10192 10192 10193 10193 10192 10191 10191 10191 10191 10192 10192 10192 10192
10295 10297 10299 10302 10304 10306 10307 10309 10310 10311 10312 10313 10313 10314 10314 10314 10314 10314 10314 10314 10313 10313 10312 10311 10310 10309 10308 10307 10306 10304 10302 10299 10297 10294 10292 10289 10287 10284 10282 10279 10275 10272 10269 10266 10263 10260 10257 10253 10249 10246 10242 10239 10236 10232 10229 10225 10221 10218 10215 10213 10210 10208 10205 10202 10199 10197 10194 10193 10191 10190 10189 10187 10186 10185 10184 10184 10185 10185 10185 10184 10183 10183 10184 10184 10184 10184 10185
10293 10295 10297 10299 10301 10303 10305 10307 10308 10309 10310 10310 10311 10312 10312 10312 10312 10311 10311 10311 10311 10310 10310 10309 10308 10307 10306 10305 10303 10301 10299 10297 10295 10292 10290 10287 10284 10282 10279 10276 10273 10270 10266 10263 10259 10256 10253 10250 10246 10242 10238 10235 10231 10228 10225 10221 10217 10213 10210 10207 10205 10202 10199 10197 10194 10191 10188 10185 10184 10183 10182 10181 10180 10179 10178 10177 10177 10178 10178 10177 10176 10176 10176 10177 10177 10177 10178
10290 10293 10295 10297 10299 10301 10303 10304 10305 10306 10307 10308 10308 10309 10310 10310 10309 10308 10308 10308 10308 10307 10307 10306 10305 10304 10303 10302 10301 10299 10297 10295 10293 10290 10288 10285 10283 10280 10277 10274 10271 10267 10264 10260 10256 10253 10250 10246 10243 10238 10234 10230 10226 10223 10220 10217 10213 10208 10205 10202 10199 10197 10194 10191 10189 10186 10182 10180 10178 10176 10175 10174 10173 10172 10171 10171 10170 10171 10171 10171 10170 10169 10170 10170 10170 10171 10173
10288 10290 10293 10295 10297 10299 10300 10302 10303 10304 10304 10305 10306 10307 10307 10307 10306 10305 10305 10305 10305 10305 10304 10303 10302 10301 10300 10299 10298 10296 10294 10292 10290 10287 10285 10282 10280 10277 10274 10271 10268 10264 10261 10257 10253 10250 10247 10243 10239 10235 10231 10227 10223 10218 10214 10211 10207 10203 10199 10195 10193 10190 10188 10186 10183 10180 10177 10175 10172 10171 10170 10168 10167 10166 10165 10165 10164 10164 10165 10165 10164 10164 10164 10163 10163 10164 10167
10285 10288 10290 10292 10294 10296 10298 10299 10300 10301 10302 10302 10303 10304 10304 10304 10304 10303 10302 10302 10303 10302 10302 10301 10300 10299 10297 10296 10295 10294 10292 10289 10287 10285 10282 10279 10277 10274 10271 10267 10264 10261 10258 10254 10249 10246 10242 10239 10235 10231 10227 10224 10220 10216 10211 10207 10203 10199 10194 10190 10187 10184 10182 10180 10177 10174 10172 10170 10167 10166 10164 10163 10162 10161 10160 10160 10159 10159 10159 10159 10159 10159 10158 10158 10157 10158 10160
10282 10285 10287 10289 10291 10293 10295 10296 10297 10298 10299 10299 10300 10300 10301 10301 10301 10300 10299 10299 10299 10299 10299 10298 10297 10296 10295 10293 10292 10291 10289 10287 10284 10282 10279 10276 10274 10271 10268 10264 10261 10258 10254 10250 10245 10241 10238 10234 10231 10227 10223 10219 10215 10212 10208 10203 10199 10195 10192 10188 10184 10180 10177 10174 10172 10169 10167 10164 10162 10160 10159 10158 10157 10156 10155 10155 10154 10154 10153 10154 10154 10154 10154 10153 10152 10153 10154
10280 10282 10284 10286 10288 10289 10291 10293 10294 10295 10296 10296 10297 10296 10297 10298 10298 10297 10296 10296 10296 10296 10296 10295 10294 10293 10292 10290 10288 10287 10286 10284 10281 10279 10276 10273 10271 10268 10265 10261 10257 10254 10251 10247 10242 10238 10233 10229 10226 10223 10219 10215 10211 10207 10203 10199 10195 10191 10187 10184 10181 10177 10173 10170 10167 10165 10162 10159 10157 10155 10154 10153 10152 10151 10151 10150 10150 10149 10148 10149 10149 10149 10149 10149 10148 10148 10149
10277 10279 10281 10283 10284 10286 10288 10290 10291 10292 10292 10293 10293 10293 10293 10294 10295 10294 10293 10293 10292 10292 10292 10292 10291 10290 10289 10287 10285 10283 10282 10280 10278 10276 10272 10269 10267 10264 10261 10258 10254 10250 10247 10243 10238 10234 10229 10225 10222 10218 10214 10210 10207 10203 10199 10195 10190 10186 10183 10180 10177 10173 10170 10166 10164 10161 10158 10155 10153 10151 10150 10148 10147 10146 10146 10146 10145 10144 10144 10144 10144 10145 10145 10144 10144 10144 10144
10275 10276 10278 10279 10281 10283 10284 10286 10287 10288 10289 10290 10290 10290 10290 10290 10291 10291 10291 10290 10289 10289 10289 10289 10288 10286 10285 10284 10282 10280 10278 10277 10275 10272 10269 10266 10263 10260 10257 10254 10250 10247 10243 10239 10235 10230 10226 10222 10218 10214 10209 10205 10202 10198 10195 10191 10186 10182 10178 10176 10173 10170 10166 10163 10160 10157 10154 10151 10149 10147 10146 10145 10144 10143 10142 10141 10141 10140 10140 10140 10140 10140 10140 10140 10139 10139 10140
10272 10273 10275 10276 10277 10279 10281 10282 10283 10284 10285 10286 10287 10286 10286 10287 10287 10288 10288 10287 10287 10286 10286 10285 10285 10283 10282 10281 10279 10277 10275 10274 10272 10269 10266 10262 10259 10257 10253 10249 10246 10243 10240 10236 10231 10227 10222 10218 10214 10210 10205 10202 10198 10194 10190 10186 10182 10178 10173 10170 10168 10165 10162 10158 10156 10153 10151 10148 10145 10143 10142 10141 10140 10139 10139 10138 10137 10136 10136 10136 10136 10136 10135 10135 10135 10135 10135
10268 10270 10271 10273 10274 10275 10277 10278 10280 10281 10282 10283 10283 10283 10283 10283 10284 10284 10284 10284 10284 10283 10282 10281 10281 10280 10279 10278 10276 10275 10273 10271 10269 10266 10263 10259 10256 10253 10250 10246 10242 10239 10235 10231 10227 10222 10218 10214 10210 10206 10202 10198 10194 10190 10186 10182 10178 10174 10170 10166 10163 10160 10157 10154 10151 10149 10147 10145 10142 10140 10139 10138 10137 10136 10135 10135 10134 10132 10132 10132 10131 10132 10131 10131 10131 10130 10130